www.pogodaiklimat.ru

ПОГОДА в Эгвекиноте

  • Прогноз погоды в Эгвекиноте
  • Монитор погоды в Эгвекиноте
  • Климат города

АРХИВ ПОГОДЫ в Эгвекиноте

Время (UTC), дата Ветер
(напр.,м/с)
 
Видим.   Явления Облачность Т
(С)
Тd
(С)
f
(%)
Тe
(С)
Тes
(С)
Комфортность P
(гПа)
Po
(гПа)
Тmin
(С)
Tmax
(С)
R
(мм)
S
(см)
12 15.01 СЗ 8-16
{16}
20 км позёмок {метель} ясно -19.3 -26.1 55 -31 -31 опасность
обморожения
1018.0 1014.9
15 15.01 С 5-12
{16}
20 км {метель} [диам. сложн. отлож. 30 мм] ясно -18.0 -26.4 48 -28 -28 1018.0 1014.9
18 15.01 ЮЗ 4
{12}
20 км {метель} [диам. сложн. отлож. 30 мм] ясно -20.9 -27.2 57 -30 -30 1017.5 1014.4 -20.9 57
21 15.01 штиль 0
{6}
20 км [диам. сложн. отлож. 25 мм] 3/0
[Ci fib]
-24.7 -29.1 67 -25 -25 1017.0 1013.9 -24.8
00 16.01 штиль 0
{2}
20 км [диам. сложн. отлож. 25 мм] ясно -25.5 -29.8 67 -26 -25 1015.1 1012.0
03 16.01 штиль 0
{2}
20 км [диам. сложн. отлож. 25 мм] 5/0
[Ci fib]
-25.1 -29.3 68 -25 -25 1011.3 1008.2
06 16.01 штиль 0
{4}
20 км [диам. сложн. отлож. 25 мм] 10/0
[Cs]
-23.9 -27.8 70 -24 -24 1009.3 1006.2 -20.9
09 16.01 штиль 0
{2}
20 км [диам. сложн. отлож. 25 мм] 5/0
[Ci fib]
-25.0 -28.2 75 -25 -25 1007.8 1004.7
12 16.01 штиль 0
{3}
20 км [диам. сложн. отлож. 25 мм] ясно -25.5 -28.2 78 -26 -26 1007.5 1004.4
15 16.01 штиль 0
{4}
20 км [диам. сложн. отлож. 25 мм] ясно -26.3 -29.1 77 -26 -26 1006.6 1003.5
18 16.01 Ю 1
{4}
20 км [диам. сложн. отлож. 25 мм] ясно -23.7 -27.7 70 -27 -27 1006.4 1003.3 -27.4 57
21 16.01 ЮВ 1
{5}
20 км [диам. сложн. отлож. 25 мм] 3/0
[Ci fib]
-20.5 -27.4 54 -24 -24 1005.9 1002.9 -27.4
00 17.01 В 3
{7}
20 км [диам. сложн. отлож. 25 мм] 3/0
[Cc]
-21.6 -26.8 63 -30 -29 1005.9 1002.9
03 17.01 штиль 0
{9}
20 км [диам. сложн. отлож. 25 мм] 8/0
[Ac trans Cc]
-24.0 -27.7 71 -24 -24 1005.6 1002.5
06 17.01 штиль 0
{4}
20 км [диам. сложн. отлож. 25 мм] 6/0
[Ac trans Cc]
-24.1 -26.8 78 -24 -24 1006.4 1003.3 -18.3
09 17.01 штиль 0
{2}
20 км [диам. сложн. отлож. 25 мм] 8/0
[Ac trans Cc]
-23.7 -26.4 78 -24 -24 1007.3 1004.2
12 17.01 С 6
{12}
20 км [диам. сложн. отлож. 25 мм] 8/0
[Ac trans Cc]
-20.7 -27.0 57 -32 -32 опасность
обморожения
1008.6 1005.5
15 17.01 С 7
{12}
20 км [диам. сложн. отлож. 25 мм] 10/0
[Ac trans Cs]
-20.7 -27.8 53 -33 -33 опасность
обморожения
1009.3 1006.2
18 17.01 С 7-10
{13}
20 км [диам. сложн. отлож. 25 мм] 6/0
[Cc]
-20.5 -28.5 49 -32 -32 опасность
обморожения
1009.8 1006.7 -25.1 57
21 17.01 СЗ 8-13
{14}
20 км [диам. сложн. отлож. 25 мм] 10/0
[Cs]
-20.4 -27.7 52 -33 -33 опасность
обморожения
1011.1 1008.0 -25.1
00 18.01 С 6
{13}
20 км [диам. сложн. отлож. 25 мм] 10/0
[Ci sp]
-19.5 -27.6 49 -30 -30 1011.6 1008.2
03 18.01 С 4
{11}
20 км [диам. сложн. отлож. 25 мм] 10/0
[Ac trans Ci fib]
-19.6 -27.6 49 -28 -28 1011.5 1008.4
06 18.01 Ю 3
{7}
20 км [диам. сложн. отлож. 25 мм] 3/0
[Ac trans]
-22.9 -28.0 63 -31 -31 опасность
обморожения
1011.8 1008.7 -19.1
09 18.01 штиль 0
{4}
20 км [диам. сложн. отлож. 25 мм] 1/0
[Ci fib]
-24.6 -29.3 65 -25 -25 1012.1 1009.0
12 18.01 штиль 0
{2}
20 км [диам. сложн. отлож. 25 мм] ясно -25.3 -30.0 65 -25 -25 1011.9 1008.8
15 18.01 штиль 0
{2}
20 км [диам. сложн. отлож. 25 мм] ясно -25.2 -29.2 69 -25 -25 1011.0 1007.9
18 18.01 З 1
{2}
20 км [диам. сложн. отлож. 25 мм] 10/0
[Cs]
-22.8 -27.4 66 -26 -26 1010.6 1007.5 -26.1 57
21 18.01 штиль 0
{2}
20 км [диам. сложн. отлож. 25 мм] 10/0
[Ci sp]
-24.7 -27.8 75 -25 -25 1010.8 1007.7 -26.1
00 19.01 штиль 0
{1}
20 км [диам. сложн. отлож. 25 мм] 10/0
[Cs]
-23.9 -27.2 74 -24 -24 1010.6 1007.5
03 19.01 штиль 0
{2}
20 км [диам. сложн. отлож. 25 мм] 10/0
[Cs]
-22.6 -25.8 75 -23 -23 1009.9 1006.8
06 19.01 штиль 0
{1}
20 км [диам. сложн. отлож. 25 мм] 4/0
[Ci fib]
-25.4 -28.7 74 -25 -25 1009.9 1006.8 -22.5
09 19.01 штиль 0
{2}
20 км [диам. сложн. отлож. 25 мм] 5/0
[Ci fib]
-24.0 -27.5 73 -24 -24 1009.7 1006.6
12 19.01 штиль 0
{2}
20 км [диам. сложн. отлож. 25 мм] ясно -25.9 -28.7 77 -26 -26 1009.8 1006.7
15 19.01 штиль 0
{2}
20 км [диам. сложн. отлож. 25 мм] ясно -27.4 -30.0 78 -27 -27 1009.7 1006.6
18 19.01 штиль 0
{1}
20 км [диам. сложн. отлож. 25 мм] ясно -26.6 -29.6 76 -27 -27 1010.0 1006.9 -28.2 57
21 19.01 штиль 0
{2}
20 км [диам. сложн. отлож. 25 мм] ясно -26.8 -30.2 73 -27 -27 1010.6 1007.5 -28.5
00 20.01 штиль 0
{2}
20 км [диам. сложн. отлож. 25 мм] ясно -27.6 -31.1 72 -28 -28 1011.6 1008.4
03 20.01 штиль 0
{2}
20 км [диам. сложн. отлож. 25 мм] ясно -30.3 -34.5 67 -30 -30 1011.6 1008.4
06 20.01 штиль 0
{2}
20 км [диам. сложн. отлож. 25 мм] ясно -27.4 -30.9 72 -27 -27 1012.3 1009.2 -25.1
09 20.01 штиль 0
{2}
20 км [диам. сложн. отлож. 25 мм] ясно -28.5 -31.9 72 -29 -29 1013.5 1010.3
12 20.01 штиль 0
{3}
20 км [диам. сложн. отлож. 25 мм] ясно -28.6 -31.6 75 -29 -29 1014.0 1010.8
15 20.01 ЮЗ 1
{2}
20 км [диам. сложн. отлож. 25 мм] ясно -29.8 -33.0 74 -34 -34 опасность
обморожения
1014.0 1010.8
18 20.01 штиль 0
{1}
20 км [диам. сложн. отлож. 25 мм] ясно -31.3 -34.4 74 -31 -31 опасность
обморожения
1014.9 1011.7 -31.4 57
21 20.01 штиль 0
{2}
20 км [диам. сложн. отлож. 25 мм] ясно -30.8 -33.9 74 -31 -31 опасность
обморожения
1015.6 1012.4 -32.3
00 21.01 штиль 0
{2}
20 км [диам. сложн. отлож. 25 мм] ясно -31.4 -34.9 71 -31 -31 опасность
обморожения
1016.2 1013.0
03 21.01 штиль 0
{2}
20 км [диам. сложн. отлож. 25 мм] ясно -32.4 -35.4 74 -32 -32 опасность
обморожения
1016.8 1013.6
06 21.01 штиль 0
{3}
20 км [диам. сложн. отлож. 25 мм] ясно -32.8 -36.0 73 -33 -33 опасность
обморожения
1016.8 1013.5 -29.0
09 21.01 штиль 0
{2}
20 км [диам. сложн. отлож. 25 мм] ясно -32.8 -36.3 71 -33 -33 опасность
обморожения
1017.8 1014.6
12 21.01 штиль 0
{1}
20 км ясно -33.9 -37.2 72 -34 -34 опасность
обморожения
1018.5 1015.2
15 21.01 штиль 0
{1}
20 км [диам. сложн. отлож. 25 мм] ясно -32.3 -35.7 72 -32 -32 опасность
обморожения
1018.5 1015.3
18 21.01 штиль 0
{2}
20 км [диам. сложн. отлож. 25 мм] ясно -32.1 -35.4 72 -32 -32 опасность
обморожения
1018.5 1015.3 -34.7 57
21 21.01 штиль 0
{1}
20 км [диам. сложн. отлож. 25 мм] ясно -33.7 -37.1 71 -34 -34 опасность
обморожения
1019.6 1016.3 -34.7
00 22.01 штиль 0
{2}
20 км ясно -32.0 -35.9 68 -32 -32 опасность
обморожения
1020.2 1017.0
03 22.01 штиль 0
{2}
20 км [диам. сложн. отлож. 25 мм] ясно -30.2 -33.2 75 -30 -30 1020.4 1017.2
06 22.01 штиль 0
{2}
20 км [диам. сложн. отлож. 25 мм] ясно -32.7 -35.9 73 -33 -33 опасность
обморожения
1021.3 1018.0 -29.7
09 22.01 штиль 0
{1}
20 км [диам. сложн. отлож. 25 мм] ясно -31.8 -35.2 72 -32 -32 опасность
обморожения
1021.2 1018.0

 

Местоположение метеостанции Эгвекинот (Чукотка, Россия): широта 66.35 долгота -179.00 высота над уровнем моря 22 м.

В архиве по умолчанию представлена погода в Эгвекиноте за последнюю неделю. Архивные данные за месяц целиком и за предыдущие месяцы, начиная с января 2011 года, Вы можете получить, выбрав интересующий диапазон дат из раскрывающегося списка и нажав кнопку "Ввод!".

Внимание! Время в таблицах - всемирное. Для получения местного времени необходимо прибавить поправку, которая в Эгвекиноте равна 12 ч.

Ветер - указаны скорость ветра в м/с - средняя за 10 мин, порывы в срок и между сроками (в фигурных скобках) и направление, откуда дует ветер: С - северный, СВ - северо-восточный, В - восточный, ЮВ - юго-восточный, Ю - южный, ЮЗ - юго-западный, З - западный, СЗ - северо-западный.
Видимость - горизонтальная дальность видимости в метрах или километрах. При видимости от 1 до 10 км при отсутствии осадков обычно наблюдается дымка, при ухудшении видимости до 1 км и менее - туман. В сухую погоду видимость может ухудшаться дымом, пылью или мглою.
Явления - указаны атмосферные явления, наблюдавшиеся в срок или в последний час перед сроком; фигурными скобками обозначены явления, наблюдавшиеся между сроками (за 1-3 часа до срока); квадратными скобками обозначены град или гололедные отложения с указанием их диаметра в мм.
Облачность - указаны через наклонную черту общая и нижняя облачность в баллах и высота нижней границы облаков в метрах; квадратными скобками обозначены формы облаков: Ci - перистые, Cs - перисто-слоистые, Cc - перисто-кучевые, Ac - высококучевые, As - высокослоистые, Sc - слоисто-кучевые, Ns - слоисто-дождевые, Cu - кучевые, Cb - кучево-дождевые. Подробнее классификацию облаков см. в Атласе облаков (PDF).
T - Температура воздуха - температура, измеренная на высоте 2 м над землей.
Td - Температура точки росы - температура, при понижении до которой содержащийся в воздухе водяной пар достигнет насыщения.
f - Относительная влажность воздуха - влажноcть воздуха, измеренная на высоте 2 м над землей.
Te - Эффективная температура - температура, которую ощущает одетый по сезону человек в тени. Характеристика душности погоды. При расчете учитывается влияние влажности воздуха и скорости ветра на теплоощущения человека.
Tes - Эффективная температура на солнце - температура, которую ощущает человек, с поправкой на солнечный нагрев. Характеристика знойности погоды. Зависит от высоты солнца над горизонтом, облачности и скорости ветра. Ночью, в пасмурную погоду, а также при ветре 12 м/с и более поправка равна нулю.
P - Атмосферное давление - приведенное к уровню моря атмосферное давление.
Po - Атмосферное давление - измеренное на уровне метеостанции атмосферное давление.
Tmin - Минимальная температура - минимум температуры воздуха на высоте 2 м над землей.
Tmax - Максимальная температура - максимум температуры воздуха на высоте 2 м над землей.
R - Количество осадков - Количество выпавших осадков, мм. При наведении курсора мыши на число - период времени, за который выпало указанное количество осадков.
S - Снежный покров - Высота снежного покрова, см. При наведении курсора мыши на число - состояние снежного покрова и степень покрытия местности в баллах.